Overview Statistics Trail Chart Weather Telemetry Raw packets
 

This is the latest recevied weather packets stored in our database for station/object IU1OLT-6. If no packets are shown the sender has not sent any weather packets the latest 10 day(s).

<< 30 31 32 33 34 35 36 >>
Time Temp. Humidity Pressure Rain* Wind** Luminosity Snow
1787947336 17.22° C 99% 1010.8 hPa 0 mm - - -
1787946376 16.67° C 98% 1010.4 hPa 0 mm - - -
1787945416 16.67° C 98% 1010.9 hPa 0 mm - - -
1787944456 17.22° C 98% 1010.9 hPa 0 mm - - -
1787943496 17.78° C 98% 1009.8 hPa 0 mm - - -
1787942536 17.22° C 98% 1010.3 hPa 0 mm - - -
1787941576 17.22° C 98% 1010.9 hPa 0 mm - - -
1787940616 17.22° C 98% 1011.1 hPa 0 mm - - -
1787939656 17.22° C 98% 1011.2 hPa 0 mm - - -
1787938696 17.78° C 98% 1010.1 hPa 0 mm - - -
1787937737 17.78° C 98% 1011.1 hPa 0 mm - - -
1787936776 17.78° C 98% 1011.9 hPa 0 mm - - -
1787935816 17.78° C 98% 1010.2 hPa 0 mm - - -
1787934857 18.33° C 98% 1010.9 hPa 0 mm - - -
1787933944 17.78° C 98% 1011.5 hPa 0 mm - - -
1787933032 17.78° C 97% 1012.4 hPa 0 mm - - -
1787932072 18.33° C 97% 1012.1 hPa 0 mm - - -
1787931113 17.78° C 97% 1011.2 hPa 0 mm - - -
1787930153 18.33° C 97% 1012.5 hPa 0 mm - - -
1787929192 18.33° C 96% 1012.5 hPa 0 mm - - -
1787928233 18.89° C 96% 1012.9 hPa 0 mm - - -
1787927272 19.44° C 96% 1013.1 hPa 0 mm - - -
1787926313 19.44° C 95% 1012.8 hPa 0 mm - - -
1787925352 19.44° C 82% 1013 hPa 0 mm - - -
1787924393 20° C 82% 1013 hPa 0 mm - - -

* Rain latest hour (hover to see other rain measurements)
** Current wind speed in m/s (hover to see current wind gust speed)